TimeCDT,TemperatureF,Dew PointF,Humidity,Sea Level PressureIn,VisibilityMPH,Wind Direction,Wind SpeedMPH,Gust SpeedMPH,PrecipitationIn,Events,Conditions,WindDirDegrees,DateUTC
12:13 AM,60.8,42.8,52,29.61,10.0,NNE,10.4,-,N/A,Thunderstorm,Clear,20,2012-04-25 05:13:00
12:32 AM,60.8,42.8,52,29.56,10.0,ESE,12.7,-,N/A,,Clear,110,2012-04-25 05:32:00
12:53 AM,60.8,42.8,52,29.56,10.0,ESE,11.5,-,N/A,,Clear,120,2012-04-25 05:53:00
1:13 AM,60.8,41.0,48,29.56,10.0,SE,10.4,17.3,N/A,,Clear,140,2012-04-25 06:13:00
1:32 AM,60.8,42.8,52,29.59,10.0,East,9.2,-,N/A,,Mostly Cloudy,90,2012-04-25 06:32:00
1:53 AM,62.6,41.0,45,29.57,10.0,ESE,16.1,-,N/A,,Overcast,120,2012-04-25 06:53:00
2:13 AM,62.6,39.2,42,29.55,10.0,SE,13.8,-,N/A,,Mostly Cloudy,140,2012-04-25 07:13:00
2:53 AM,60.8,41.0,48,29.54,10.0,SSE,13.8,19.6,N/A,,Clear,150,2012-04-25 07:53:00
3:13 AM,60.8,41.0,48,29.53,10.0,SSE,11.5,17.3,N/A,,Clear,150,2012-04-25 08:13:00
3:33 AM,60.8,42.8,52,29.54,10.0,SE,10.4,-,N/A,,Clear,140,2012-04-25 08:33:00
3:53 AM,60.8,42.8,52,29.53,10.0,SE,10.4,17.3,N/A,Thunderstorm,Clear,140,2012-04-25 08:53:00
4:12 AM,60.8,42.8,52,29.54,10.0,SE,13.8,17.3,N/A,,Clear,130,2012-04-25 09:12:00
4:33 AM,60.8,42.8,52,29.61,10.0,North,3.5,-,N/A,,Mostly Cloudy,350,2012-04-25 09:33:00
4:53 AM,55.4,48.2,77,29.59,7.0,ESE,4.6,-,N/A,Rain,Light Rain,110,2012-04-25 09:53:00
5:33 AM,55.4,46.4,72,29.52,10.0,SE,11.5,-,N/A,,Scattered Clouds,140,2012-04-25 10:33:00
5:53 AM,55.4,46.4,72,29.52,10.0,SE,12.7,-,N/A,,Scattered Clouds,130,2012-04-25 10:53:00
6:13 AM,55.4,48.2,77,29.50,10.0,SE,15.0,-,N/A,,Scattered Clouds,130,2012-04-25 11:13:00
6:33 AM,55.4,48.2,77,29.51,10.0,ESE,12.7,-,N/A,,Scattered Clouds,120,2012-04-25 11:33:00
6:53 AM,53.6,50.0,88,29.50,10.0,ESE,10.4,-,N/A,,Scattered Clouds,110,2012-04-25 11:53:00
7:13 AM,53.6,50.0,88,29.50,10.0,East,9.2,-,N/A,,Scattered Clouds,100,2012-04-25 12:13:00
7:33 AM,53.6,51.8,94,29.52,10.0,ESE,8.1,-,N/A,,Clear,110,2012-04-25 12:33:00
7:53 AM,53.6,51.8,94,29.53,10.0,SE,9.2,-,N/A,,Scattered Clouds,130,2012-04-25 12:53:00
8:13 AM,53.6,51.8,94,29.53,10.0,ESE,5.8,-,N/A,,Mostly Cloudy,120,2012-04-25 13:13:00
8:33 AM,55.4,51.8,88,29.54,10.0,East,5.8,-,N/A,,Mostly Cloudy,80,2012-04-25 13:33:00
8:53 AM,55.4,51.8,88,29.54,10.0,East,8.1,-,N/A,,Scattered Clouds,100,2012-04-25 13:53:00
9:13 AM,57.2,51.8,82,29.54,10.0,ESE,8.1,-,N/A,,Clear,110,2012-04-25 14:13:00
9:33 AM,57.2,51.8,82,29.54,10.0,ESE,10.4,-,N/A,,Clear,120,2012-04-25 14:33:00
9:53 AM,59.0,51.8,77,29.54,10.0,SE,8.1,-,N/A,,Clear,130,2012-04-25 14:53:00
10:13 AM,60.8,51.8,72,29.54,10.0,ESE,9.2,-,N/A,,Clear,120,2012-04-25 15:13:00
10:33 AM,60.8,51.8,72,29.54,10.0,ESE,6.9,-,N/A,,Clear,120,2012-04-25 15:33:00
10:52 AM,62.6,51.8,68,29.55,10.0,East,8.1,-,N/A,,Clear,100,2012-04-25 15:52:00
11:13 AM,64.4,51.8,64,29.56,10.0,East,9.2,-,N/A,,Clear,90,2012-04-25 16:13:00
11:33 AM,64.4,51.8,64,29.56,10.0,East,10.4,-,N/A,,Clear,90,2012-04-25 16:33:00
11:52 AM,64.4,51.8,64,29.56,10.0,ESE,8.1,-,N/A,,Clear,120,2012-04-25 16:52:00
12:13 PM,64.4,51.8,64,29.56,10.0,ESE,4.6,-,N/A,,Clear,110,2012-04-25 17:13:00
12:33 PM,66.2,51.8,60,29.57,10.0,Calm,Calm,-,N/A,,Clear,0,2012-04-25 17:33:00
12:52 PM,66.2,53.6,64,29.58,10.0,East,4.6,-,N/A,,Clear,90,2012-04-25 17:52:00
1:13 PM,66.2,51.8,60,29.59,10.0,NNE,4.6,-,N/A,,Clear,20,2012-04-25 18:13:00
1:33 PM,68.0,51.8,56,29.59,10.0,Calm,Calm,-,N/A,,Clear,0,2012-04-25 18:33:00
2:13 PM,69.8,51.8,53,29.60,10.0,NE,6.9,-,N/A,,Clear,50,2012-04-25 19:13:00
2:33 PM,69.8,51.8,53,29.60,10.0,NNE,5.8,-,N/A,,Clear,20,2012-04-25 19:33:00
2:52 PM,69.8,51.8,53,29.61,10.0,Calm,Calm,-,N/A,,Clear,0,2012-04-25 19:52:00
3:13 PM,69.8,51.8,53,29.62,10.0,North,5.8,-,N/A,,Clear,360,2012-04-25 20:13:00
3:33 PM,71.6,51.8,50,29.62,10.0,NNW,10.4,-,N/A,,Clear,330,2012-04-25 20:33:00
3:52 PM,71.6,51.8,50,29.62,10.0,North,10.4,-,N/A,,Clear,350,2012-04-25 20:52:00
4:13 PM,71.6,51.8,50,29.62,10.0,North,10.4,17.3,N/A,,Clear,360,2012-04-25 21:13:00
4:32 PM,71.6,51.8,50,29.63,10.0,North,15.0,-,N/A,,Clear,350,2012-04-25 21:32:00
4:53 PM,71.6,51.8,50,29.62,10.0,North,10.4,-,N/A,,Clear,350,2012-04-25 21:53:00
5:13 PM,71.6,51.8,50,29.63,10.0,North,10.4,18.4,N/A,,Clear,350,2012-04-25 22:13:00
5:33 PM,71.6,51.8,50,29.63,10.0,North,6.9,16.1,N/A,,Clear,350,2012-04-25 22:33:00
5:53 PM,71.6,51.8,50,29.64,10.0,North,9.2,-,N/A,,Clear,350,2012-04-25 22:53:00
6:13 PM,71.6,51.8,50,29.64,10.0,NW,10.4,-,N/A,,Clear,320,2012-04-25 23:13:00
6:33 PM,71.6,50.0,46,29.65,10.0,NNW,10.4,-,N/A,,Clear,330,2012-04-25 23:33:00
6:53 PM,71.6,51.8,50,29.66,10.0,NNW,9.2,-,N/A,,Clear,340,2012-04-25 23:53:00
7:12 PM,69.8,51.8,53,29.67,10.0,NNW,6.9,-,N/A,,Clear,340,2012-04-26 00:12:00
7:33 PM,69.8,51.8,53,29.67,10.0,NNW,5.8,-,N/A,,Scattered Clouds,330,2012-04-26 00:33:00
7:53 PM,69.8,46.4,43,29.67,10.0,NNW,13.8,17.3,N/A,,Scattered Clouds,330,2012-04-26 00:53:00
8:13 PM,69.8,46.4,43,29.67,10.0,NW,6.9,-,N/A,,Clear,310,2012-04-26 01:13:00
8:33 PM,66.2,46.4,49,29.68,10.0,NW,5.8,-,N/A,,Clear,320,2012-04-26 01:33:00
8:53 PM,66.2,46.4,49,29.69,10.0,NW,6.9,-,N/A,,Clear,320,2012-04-26 01:53:00
9:12 PM,66.2,46.4,49,29.70,10.0,NW,11.5,16.1,N/A,,Clear,310,2012-04-26 02:12:00
9:33 PM,66.2,44.6,46,29.72,10.0,NW,15.0,23.0,N/A,,Clear,320,2012-04-26 02:33:00
9:53 PM,64.4,44.6,49,29.74,10.0,NW,13.8,19.6,N/A,,Clear,320,2012-04-26 02:53:00
10:13 PM,64.4,44.6,49,29.76,10.0,NNW,16.1,-,N/A,,Clear,340,2012-04-26 03:13:00
10:33 PM,62.6,46.4,55,29.77,10.0,North,16.1,26.5,N/A,,Clear,350,2012-04-26 03:33:00
10:53 PM,60.8,44.6,55,29.78,10.0,North,13.8,-,N/A,,Clear,360,2012-04-26 03:53:00
11:13 PM,60.8,44.6,55,29.79,10.0,North,11.5,18.4,N/A,,Clear,360,2012-04-26 04:13:00
11:33 PM,59.0,44.6,59,29.80,10.0,North,15.0,19.6,N/A,,Clear,10,2012-04-26 04:33:00
11:53 PM,57.2,44.6,63,29.81,10.0,North,12.7,-,N/A,,Clear,360,2012-04-26 04:53:00